This is the latest recevied weather packets stored in our database for station/object W2JGA. If no packets are shown the sender has not sent any weather packets the latest 1 day(s).
| Time | Temp. | Humidity | Pressure | Rain* | Wind** | Luminosity | Snow |
|---|---|---|---|---|---|---|---|
| 1778028584 | 22.78° C | 33% | 1012.9 hPa | 0 mm | - | 202 W/m² | - |
| 1778028282 | 23.33° C | 33% | 1012.9 hPa | 0 mm | - | 228 W/m² | - |
| 1778027978 | 23.33° C | 33% | 1012.9 hPa | 0 mm | - | 239 W/m² | - |
| 1778027675 | 23.33° C | 33% | 1012.9 hPa | 0 mm | - | 263 W/m² | - |
| 1778027371 | 23.33° C | 34% | 1012.9 hPa | 0 mm | - | 274 W/m² | - |
| 1778027067 | 23.33° C | 34% | 1012.9 hPa | 0 mm | - | 283 W/m² | - |
| 1778026763 | 23.89° C | 34% | 1012.9 hPa | 0 mm | - | 291 W/m² | - |
| 1778026460 | 23.89° C | 34% | 1012.9 hPa | 0 mm | - | 310 W/m² | - |
| 1778025855 | 23.89° C | 35% | 1012.4 hPa | 0 mm | - | 364 W/m² | - |
| 1778024038 | 23.89° C | 35% | 1012.1 hPa | 0 mm | - | 505 W/m² | - |
| 1778021919 | 24.44° C | 35% | 1012.4 hPa | 0 mm | - | 539 W/m² | - |
| 1778021617 | 23.89° C | 34% | 1012.4 hPa | 0 mm | - | 553 W/m² | - |
| 1778018892 | 23.89° C | 36% | 1012.9 hPa | 0 mm | - | 646 W/m² | - |
| 1778018589 | 22.78° C | 37% | 1012.9 hPa | 0 mm | - | 689 W/m² | - |
| 1778017682 | 23.33° C | 39% | 1013.2 hPa | 0 mm | - | 159 W/m² | - |
| 1778015561 | 23.89° C | 36% | 1013.2 hPa | 0 mm | - | 695 W/m² | - |
| 1778014652 | 23.89° C | 40% | 1013.6 hPa | 0 mm | - | 692 W/m² | - |
| 1778014350 | 23.89° C | 40% | 1013.2 hPa | 0 mm | - | 716 W/m² | - |
| 1778014046 | 23.89° C | 39% | 1013.9 hPa | 0 mm | - | 763 W/m² | - |
| 1778013138 | 23.33° C | 41% | 1013.6 hPa | 0 mm | - | 727 W/m² | - |
| 1778012530 | 23.89° C | 42% | 1013.6 hPa | 0 mm | - | 766 W/m² | - |
| 1778011319 | 23.33° C | 43% | 1013.6 hPa | 0 mm | - | 829 W/m² | - |
| 1778009499 | 22.78° C | 48% | 1013.9 hPa | 0 mm | - | 851 W/m² | - |
| 1778009198 | 22.22° C | 51% | 1013.9 hPa | 0 mm | - | 725 W/m² | - |
| 1778008291 | 22.22° C | 54% | 1014.3 hPa | 0 mm | - | 928 W/m² | - |
* Rain latest hour (hover to see other rain measurements)
** Current wind speed in m/s (hover to see current wind gust speed)